Theta_e
316 318 319 322 324 329 336 337 338 340 341 340 340 335 331 328 327 326 326 326 328 329 329 328 327 329 327 317 304 304 305 306
315 316 317 319 321 323 334 336 337 337 337 340 338 338 337 333 331 329 329 327 328 329 329 329 330 331 329 322 305 304 305 307
312 313 313 314 315 317 320 324 327 331 331 337 337 336 336 336 335 335 335 334 330 330 330 330 329 332 330 325 320 305 305 305
308 308 309 310 311 313 314 316 319 326 331 332 336 336 336 337 334 334 333 334 334 333 332 331 330 330 331 328 322 319 304 306
307 305 305 306 308 309 311 312 316 322 324 327 329 331 334 335 335 335 334 334 334 333 333 332 332 332 331 329 326 317 304 306
307 305 305 304 306 309 311 311 312 313 313 314 317 322 330 330 333 333 333 333 334 332 332 332 331 332 331 331 327 317 305 306
308 308 308 309 307 304 308 308 307 307 308 309 310 312 315 320 323 325 328 328 329 331 331 330 331 331 332 332 331 324 306 305
308 308 308 308 307 307 304 306 308 307 307 309 310 311 311 313 314 316 317 320 322 325 324 323 325 326 330 327 319 311 307 306
311 309 306 307 305 306 305 304 306 307 307 307 309 311 310 311 311 313 314 316 318 319 320 321 321 322 318 314 316 316 311 307
311 308 305 303 303 304 304 304 305 306 306 306 307 310 310 310 311 313 314 314 315 316 316 316 317 317 317 317 314 312 309 307
305 305 304 303 303 303 304 303 304 305 305 305 305 307 310 311 311 310 312 312 312 312 312 312 313 314 316 315 313 312 310 306
307 305 304 303 303 304 304 304 304 304 305 306 306 305 307 309 311 311 310 310 309 310 311 311 311 310 310 311 309 308 306 305
301 301 302 304 304 304 306 307 307 307 307 308 309 309 308 309 310 311 311 311 312 310 310 310 309 308 309 308 310 309 309 308
301 302 302 305 305 306 305 305 305 306 307 307 307 307 308 309 310 310 311 311 311 311 311 310 308 309 307 309 307 307 308 305
301 302 301 302 302 303 302 302 302 303 303 304 305 305 304 305 306 310 310 310 311 311 311 311 309 308 308 307 307 305 304 304
299 300 300 299 299 299 299 299 299 300 300 300 302 302 302 304 306 308 307 308 309 310 311 311 311 309 307 306 306 303 302 302
298 299 299 298 298 298 297 297 297 298 299 299 299 300 302 304 307 305 305 306 305 305 309 311 310 310 309 309 306 305 303 301
296 297 296 296 296 297 298 297 297 297 298 298 298 298 300 302 303 304 304 305 305 303 302 307 310 309 308 307 307 305 304 302
296 296 296 296 296 296 297 297 297 297 298 298 298 298 298 299 302 303 303 305 304 302 302 305 309 310 309 305 305 304 304 303
Wind_Speed
16 16 18 20 17 11 9 15 19 24 28 36 39 46 50 52 51 53 52 50 49 46 44 41 38 39 40 40 40 38 35 32
17 20 21 22 23 20 9 13 20 26 27 30 35 40 45 52 53 52 53 54 55 51 51 47 45 45 45 42 39 38 38 38
16 17 19 20 19 18 18 15 10 15 23 36 32 33 40 45 49 53 55 57 56 56 57 55 52 50 49 49 48 47 48 48
16 18 18 18 18 18 18 18 19 16 14 21 29 36 39 40 46 48 53 57 60 56 62 61 59 57 58 57 57 60 64 57
16 17 18 19 18 17 14 12 13 14 13 14 21 27 35 44 46 47 49 54 60 64 56 66 66 61 62 64 64 64 68 65
16 17 19 19 19 17 14 15 14 14 16 19 20 20 22 27 34 40 48 56 58 62 60 56 66 73 66 66 69 70 72 67
15 17 19 20 19 18 17 14 16 16 16 19 20 20 22 25 25 28 32 27 37 58 58 60 60 70 73 72 74 73 75 73
22 23 22 22 22 19 18 17 17 16 18 20 23 23 23 22 22 25 29 30 25 30 32 41 52 65 69 73 67 57 56 48
19 26 24 24 24 23 21 21 19 18 18 19 20 23 24 24 26 23 20 19 20 24 29 33 40 51 48 48 52 55 56 59
23 27 24 26 24 24 21 22 22 18 18 20 18 18 20 23 23 21 18 17 16 15 16 20 26 37 43 44 49 48 51 60
25 26 27 26 27 24 19 20 21 21 20 22 21 17 17 18 20 20 18 16 16 18 20 19 21 26 27 29 39 42 50 56
27 29 27 32 30 25 17 19 22 23 22 21 21 18 19 18 17 17 16 15 18 17 16 12 13 17 22 22 29 33 38 47
20 25 25 27 23 18 14 13 13 14 15 14 14 16 17 17 20 21 23 23 20 15 14 14 10 12 15 22 25 29 29 35
22 24 25 22 17 12 13 14 15 15 15 15 15 15 19 19 22 21 24 24 20 21 19 10 7 11 10 14 15 18 27 31
28 28 27 21 20 15 15 17 16 17 17 18 20 21 22 21 19 23 24 24 21 17 14 16 6 12 10 17 16 17 18 23
26 25 22 20 19 19 19 20 19 20 21 21 22 22 24 24 19 20 20 20 19 16 14 12 14 7 11 12 16 12 19 24
27 18 21 27 28 27 28 28 28 28 26 24 23 23 24 23 20 20 22 19 20 20 16 15 13 19 19 18 11 22 21 20
27 26 30 31 33 32 32 33 33 33 32 31 29 26 25 24 26 26 24 24 23 20 21 16 16 14 18 19 16 19 21 21
31 34 36 39 36 39 37 33 34 35 32 33 35 33 29 27 28 27 26 23 22 20 19 18 15 14 14 15 17 19 21 21
Wind_Direction
30 26 19 14 6 341 293 300 302 288 276 266 259 254 252 252 250 249 249 244 241 239 242 238 229 230 228 227 228 219 216 213
41 35 31 31 29 26 359 303 296 282 280 274 274 268 265 259 258 255 256 246 243 240 240 240 235 233 225 226 225 228 212 207
41 33 26 25 24 26 21 14 337 295 296 277 276 277 270 268 265 266 259 259 248 242 240 240 239 232 225 223 224 223 223 212
31 33 33 29 26 21 8 357 350 355 299 288 277 270 265 265 261 262 260 255 258 251 243 241 239 236 228 222 222 222 218 210
29 21 18 17 17 16 11 355 341 335 328 309 290 286 274 266 268 272 272 266 260 257 253 243 243 238 231 224 225 222 220 215
23 18 13 6 5 9 16 12 6 346 336 323 312 307 288 283 267 263 260 265 266 251 253 250 247 240 234 234 227 223 221 223
11 2 359 357 352 351 356 11 10 0 354 354 352 336 314 296 295 286 278 279 255 247 249 251 254 249 238 236 233 229 224 220
1 352 345 344 346 338 334 328 335 351 358 354 354 352 353 342 325 311 302 289 276 252 243 244 249 245 243 236 228 222 211 218
339 347 338 330 332 330 324 325 321 323 325 337 348 353 355 349 345 330 321 304 291 275 261 258 249 250 246 240 233 231 222 219
325 329 326 333 329 318 312 313 318 318 318 317 324 336 347 350 343 341 331 319 308 301 280 266 257 257 249 246 241 226 217 220
323 325 324 328 329 318 297 298 305 310 311 307 307 312 323 340 345 341 336 343 329 312 290 275 275 264 254 256 251 236 227 218
314 313 307 311 315 315 295 296 295 299 305 309 302 302 304 309 318 328 326 337 349 353 308 305 299 285 267 251 237 231 215 212
321 325 325 322 316 307 298 312 317 317 314 320 317 310 309 304 297 303 309 310 318 321 336 314 298 298 277 240 219 214 213 210
320 325 321 321 324 313 312 312 317 318 320 322 324 328 325 323 307 291 297 304 305 316 299 308 344 306 288 238 239 235 221 209
310 307 309 305 303 302 308 311 320 319 319 319 316 317 320 325 317 300 294 301 299 295 299 300 275 312 284 241 236 213 209 208
311 313 312 317 320 322 322 322 324 319 315 313 311 307 308 314 318 312 310 304 301 299 293 288 277 252 272 266 218 195 202 202
314 293 318 316 313 314 314 318 318 315 309 305 309 311 305 302 299 304 303 305 311 311 293 275 276 276 242 244 235 209 202 209
314 309 311 310 306 304 300 305 309 304 303 301 303 304 299 297 297 298 302 297 293 295 296 285 269 270 271 245 225 225 217 210
309 309 308 307 305 301 300 303 301 296 290 295 297 300 297 289 290 293 295 292 291 297 298 292 267 253 274 265 236 219 215 210